Flag for Germany Weather for the Past 2 Weeks in Leinfelden-Echterdingen, Baden-Württemberg, Germany

Now
43 °F

Clear.


Feels Like: 43 °F
Forecast: 37 / 61 °F
Wind: 2 mph from Northeast

Location: Stuttgart-Echterdingen

Current Time: May 5, 2016 at 1:23:35 AM

Latest Report: May 5, 2016 at 12:50 AM


Visibility: 10 mi

Pressure: 30.30 "Hg

Humidity: 57%

Dew Point: 28 °F

Location of Leinfelden-EchterdingenLocation

Historic Weather in Leinfelden-Echterdingen — Graph

°F

Leinfelden-Echterdingen Temperature Yesterday

Maximum temperature yesterday: 57 °F (at 1:50 PM)
Minimum temperature yesterday: 41 °F (at 4:20 AM)
Average temperature yesterday: 50 °F

High & Low Weather Summary for the Past Weeks

 TemperatureHumidityPressure
High68 °F (Apr 21, 3:50 PM)100% (Apr 24, 10:50 PM)30.39 "Hg (Apr 24, 10:50 PM)
Low30 °F (Apr 29, 3:50 AM)24% (Apr 21, 6:20 PM)29.56 "Hg (Apr 26, 5:50 AM)
Average47 °F70%30.02 "Hg
* Reported Apr 19 11:20 PM — May 4 11:20 PM, Leinfelden-Echterdingen, Weather by CustomWeather, © 2016

Note: Actual official high and low records may vary slightly from our data, if they occured in-between our weather recording intervals... More about our weather records

Advertising

Leinfelden-Echterdingen Weather History for the Previous 24 Hours

Scroll right to see more
 ConditionsComfort  
Time TempWeatherWind HumidityBarometerVisibility
11:20 PM
Wed, May 4
45 °FClear.1 mph57%30.30 "Hg10 mi
10:50 PM46 °FClear.1 mph53%30.30 "Hg10 mi
10:20 PM48 °FPassing clouds.5 mph46%30.30 "HgN/A
9:50 PM48 °FClear.5 mph46%30.30 "Hg10 mi
9:20 PM52 °FSunny.8 mph38%30.30 "Hg10 mi
8:50 PM52 °FSunny.8 mph38%30.27 "Hg10 mi
8:20 PM54 °FSunny.7 mph30%30.30 "Hg10 mi
7:50 PM55 °FSunny.8 mph31%30.27 "Hg10 mi
7:20 PM55 °FPassing clouds.9 mph31%30.27 "HgN/A
6:50 PM57 °FPassing clouds.8 mph31%30.27 "HgN/A
6:20 PM57 °FPassing clouds.9 mph31%30.27 "HgN/A
5:50 PM57 °FSunny.6 mph33%30.27 "Hg10 mi
5:20 PM57 °FSunny.5 mph33%30.27 "Hg10 mi
4:50 PM57 °FPassing clouds.5 mph33%30.30 "HgN/A
4:20 PM57 °FSunny.9 mph33%30.30 "Hg10 mi
3:50 PM57 °FSunny.6 mph36%30.30 "Hg10 mi
3:20 PM57 °FSunny.8 mph41%30.30 "Hg10 mi
2:50 PM57 °FPassing clouds.7 mph41%30.30 "HgN/A
2:20 PM55 °FSunny.3 mph47%30.30 "Hg10 mi
1:50 PM57 °FSunny.5 mph41%30.33 "Hg10 mi
1:20 PM55 °FPassing clouds.5 mph44%30.33 "HgN/A
12:50 PM54 °FPassing clouds.5 mph47%30.33 "HgN/A
12:20 PM52 °FScattered clouds.5 mph47%30.33 "HgN/A
11:50 AM52 °FScattered clouds.3 mph50%30.36 "HgN/A
11:20 AM52 °FScattered clouds.5 mph67%30.33 "HgN/A
10:50 AM52 °FScattered clouds.6 mph67%30.36 "HgN/A
10:20 AM50 °FPassing clouds.3 mph71%30.36 "HgN/A
9:50 AM50 °FPassing clouds.3 mph71%30.36 "HgN/A
9:20 AM48 °FPassing clouds.2 mph76%30.36 "HgN/A
8:50 AM48 °FPassing clouds.3 mph71%30.36 "HgN/A
8:20 AM46 °FSunny.2 mph76%30.36 "Hg10 mi
7:50 AM46 °FSunny.2 mph76%30.36 "Hg10 mi
7:20 AM43 °FPassing clouds.3 mph87%30.33 "HgN/A
6:50 AM41 °FPassing clouds.2 mph87%30.33 "HgN/A
6:20 AM41 °FPassing clouds.2 mph87%30.33 "HgN/A
5:50 AM41 °FPassing clouds.1 mph81%30.33 "HgN/A
5:20 AM41 °FPassing clouds.2 mph93%30.33 "HgN/A
4:50 AM41 °FPassing clouds.1 mph87%30.33 "HgN/A
4:20 AM41 °FClear.6 mph93%30.30 "Hg10 mi
3:50 AM43 °FClear.7 mph87%30.30 "Hg10 mi
3:20 AM45 °FPassing clouds.6 mph87%30.30 "HgN/A
2:50 AM45 °FPassing clouds.2 mph87%30.30 "HgN/A
2:20 AM45 °FPassing clouds.3 mph87%30.30 "HgN/A
1:50 AM45 °FPassing clouds.2 mph87%30.30 "HgN/A
1:20 AM45 °FPassing clouds.2 mph87%30.30 "HgN/A
Weather by CustomWeather, © 2016

See weather overviewHow to use our weather pages